[[{"header":{"parameterUnit":"m.s-1","parameterCategory":1,"la1":30.2992,"la2":30.254,"lo1":-89.0895,"lo2":-89.0443,"dy":0.0025,"dx":0.0025,"nx":19,"ny":19,"refTime":"2026-03-11T21:00:00:Z","depth":0,"parameterNumber":2,"parameterNumberName":"U-component_of_WINDS"},"data":[0,0,0,-3.6461,-3.6465,-3.6646,-3.6647,-3.6892,-3.6895,0,0,0,0,0,0,0,0,0,0,0,-3.6413,-3.6415,-3.646,-3.6465,-3.6646,-3.6647,-3.6892,-3.6895,0,0,0,0,0,0,0,0,0,0,0,-3.6412,-3.6414,-3.6417,-3.6466,-3.6646,-3.6647,-3.6891,-3.675,0,0,0,0,0,0,0,0,0,0,-3.6572,-3.6533,-3.6414,-3.6417,-3.6467,-3.6646,-3.6647,-3.6743,-3.6759,-3.6816,0,-3.6865,0,-3.6884,-3.6912,-3.6913,0,0,0,-3.6461,-3.652,-3.6563,-3.6417,-3.6469,-3.6646,-3.6563,-3.6752,-3.677,-3.6837,-3.6868,-3.6877,-3.6888,-3.6913,-3.6915,-3.7246,-3.7248,0,0,-3.6451,-3.645,-3.6551,-3.6575,-3.6545,-3.6558,-3.6569,-3.6763,-3.6798,-3.6869,-3.6883,-3.6892,-3.6915,-3.6917,-3.7245,-3.7247,0,0,0,-3.6425,-3.6443,-3.6481,-3.6566,-3.6597,-3.6563,-3.6576,-3.679,-3.6802,-3.6885,-3.6895,-3.6917,-3.692,-3.7243,-3.7245,-3.7328,0,0,0,-3.6419,-3.6427,-3.6477,-3.6477,-3.6594,-3.6695,-3.6599,-3.6789,-3.6811,-3.6893,-3.6917,-3.6922,-3.7241,-3.7244,-3.7321,-3.7367,0,0,0,-3.6399,-3.6425,-3.6453,-3.6477,-3.6554,-3.6692,-3.6715,-3.6793,-3.6817,-3.6913,-3.6923,-3.724,-3.7243,-3.7316,-3.7358,-3.7454,0,0,0,-3.6378,-3.6525,-3.6454,-3.6622,-3.6553,-3.6741,-3.6714,-3.6855,-3.6947,-3.6918,-3.7241,-3.7245,-3.7314,-3.7352,-3.7448,-3.7534,-3.7569,0,0,-3.6562,-3.6547,-3.6646,-3.6588,-3.6787,-3.6713,-3.6926,-3.7014,-3.7026,-3.7173,-3.7181,-3.7323,-3.7357,-3.7453,-3.777,-3.7798,0,0,0,-3.6703,-3.6774,-3.6827,-3.6914,-3.6983,-3.7047,-3.7101,-3.7134,-3.7258,-3.71,-3.7384,-3.7404,-3.746,-3.7502,-3.7526,-3.7574,-3.7264,-3.7264,-3.7263,-3.6961,-3.6967,-3.7131,-3.7159,-3.7244,-3.7298,-3.7368,-3.7422,-3.7405,-3.7472,-3.7515,-3.7707,-3.7755,-3.7773,-3.7823,-3.7561,-3.7562,-3.7562,-3.7562,-3.7231,-3.7333,-3.7305,-3.7453,-3.746,-3.7586,-3.7645,-3.7629,-3.7748,-3.7674,-3.7724,-3.7642,-3.7804,-3.7848,-3.7568,-3.7567,-3.7567,-3.7566,-3.7565,-3.7401,-3.745,-3.7486,-3.7612,-3.7709,-3.7733,-3.7849,-3.7851,-3.7854,-3.7903,-3.795,-3.7949,-3.7948,-3.7925,-3.7926,-3.7927,-3.7927,-3.7928,-3.7928,-3.7562,-3.76,-3.7696,-3.7781,-3.7837,-3.7912,-3.7969,-3.8025,-3.8088,-3.808,-3.8081,-3.8057,-3.7818,-3.7757,-3.7939,-3.7937,-3.7935,-3.7934,-3.7934,-3.7834,-3.7773,-3.7921,-3.7977,-3.8078,-3.8174,-3.8175,-3.829,-3.8336,-3.8394,-3.836,-3.8182,-3.8167,-3.8148,-3.8099,-3.8357,-3.8357,-3.8357,-3.8357,-3.7977,-3.7969,-3.8121,-3.8211,-3.8299,-3.8314,-3.8484,-3.8531,-3.8569,-3.8599,-3.8562,-3.8496,-3.8477,-3.8474,-3.8448,-3.8401,-3.8731,-3.8732,-3.8732,-3.8145,-3.8145,-3.8288,-3.8322,-3.8402,-3.847,-3.863,-3.8736,-3.8768,-3.8747,-3.8623,-3.8607,-3.8501,-3.8466,-3.8442,-3.8402,-3.8317,0,0]},{"header":{"parameterUnit":"m.s-1","parameterCategory":1,"la1":30.2992,"la2":30.254,"lo1":-89.0895,"lo2":-89.0443,"dy":0.0025,"dx":0.0025,"nx":19,"ny":19,"refTime":"2026-03-11T21:00:00:Z","depth":0,"parameterNumber":3,"parameterNumberName":"V-component_of_WINDS"},"data":[0,0,0,1.4425,1.4428,1.4564,1.4565,1.4759,1.4761,0,0,0,0,0,0,0,0,0,0,0,1.4395,1.4396,1.4425,1.4429,1.4564,1.4565,1.4759,1.4761,0,0,0,0,0,0,0,0,0,0,0,1.4394,1.4396,1.4398,1.4429,1.4564,1.4565,1.4758,1.4649,0,0,0,0,0,0,0,0,0,0,1.4514,1.4494,1.4395,1.4398,1.443,1.4564,1.4565,1.4644,1.4656,1.4705,0,1.4749,0,1.4758,1.4775,1.4776,0,0,0,1.4422,1.4484,1.4512,1.4398,1.4431,1.4564,1.4501,1.465,1.4664,1.4722,1.4752,1.4759,1.4761,1.4776,1.4777,1.5078,1.508,0,0,1.4415,1.4425,1.4502,1.4521,1.4498,1.4497,1.4506,1.4658,1.4693,1.4752,1.4763,1.4764,1.4778,1.4779,1.5077,1.5079,0,0,0,1.4398,1.442,1.4443,1.4514,1.4536,1.4501,1.4511,1.4686,1.4693,1.4765,1.4767,1.4779,1.4781,1.5075,1.5078,1.5172,0,0,0,1.4393,1.441,1.4441,1.4448,1.4534,1.4612,1.4535,1.4682,1.4699,1.4766,1.4779,1.4783,1.5073,1.5076,1.5166,1.5217,0,0,0,1.4383,1.4409,1.4431,1.4448,1.4507,1.461,1.4625,1.4685,1.4701,1.4776,1.4784,1.5072,1.5076,1.516,1.5207,1.5301,0,0,0,1.4376,1.4513,1.4433,1.4588,1.4506,1.4666,1.4624,1.4743,1.4818,1.478,1.5073,1.5077,1.5158,1.5201,1.5294,1.5383,1.542,0,0,1.4555,1.4535,1.4626,1.4558,1.4734,1.4644,1.4836,1.4897,1.4895,1.5018,1.5026,1.5168,1.5206,1.5299,1.562,1.5649,0,0,0,1.4687,1.4752,1.4797,1.4868,1.4916,1.4963,1.4992,1.5015,1.5119,1.4959,1.5225,1.5248,1.5302,1.5345,1.537,1.5417,1.5096,1.5096,1.5095,1.4958,1.4947,1.5097,1.5104,1.5174,1.5203,1.526,1.5296,1.5266,1.5329,1.5367,1.5562,1.5612,1.5631,1.568,1.541,1.5411,1.5411,1.5411,1.5223,1.5315,1.5271,1.5401,1.539,1.55,1.5535,1.551,1.5614,1.5533,1.558,1.5496,1.5663,1.5706,1.5418,1.5417,1.5416,1.5415,1.5415,1.5401,1.5444,1.5468,1.5571,1.5652,1.5654,1.5756,1.5742,1.573,1.5777,1.5817,1.5816,1.5815,1.5796,1.5797,1.5798,1.5798,1.5799,1.5799,1.5579,1.5602,1.5688,1.5751,1.5796,1.5853,1.5885,1.593,1.5977,1.5959,1.596,1.5926,1.568,1.562,1.581,1.5808,1.5807,1.5806,1.5805,1.5856,1.5791,1.5924,1.5969,1.6043,1.6126,1.6107,1.62,1.6235,1.6286,1.6242,1.6061,1.6041,1.6021,1.5971,1.6241,1.6241,1.6241,1.6241,1.601,1.5997,1.613,1.6203,1.6273,1.6269,1.6424,1.645,1.6468,1.649,1.6449,1.6381,1.6361,1.6353,1.6326,1.628,1.6622,1.6622,1.6622,1.6181,1.6175,1.6307,1.6321,1.6378,1.6429,1.6574,1.6663,1.667,1.6638,1.6508,1.6492,1.6383,1.6347,1.6315,1.6273,1.6188,0,0]}]]